This is the latest recevied weather packets stored in our database for station/object K7LDN-13. If no packets are shown the sender has not sent any weather packets the latest 10 day(s).
| Time | Temp. | Humidity | Pressure | Rain* | Wind** | Luminosity | Snow |
|---|---|---|---|---|---|---|---|
| 1777110517 | 3.89° C | 45% | 1013.9 hPa | 0 mm | - | 0 W/m² | - |
| 1777110211 | 3.89° C | 44% | 1014 hPa | 0 mm | - | 0 W/m² | - |
| 1777109908 | 4.44° C | 45% | 1013.8 hPa | 0 mm | - | 0 W/m² | - |
| 1777109603 | 4.44° C | 42% | 1014 hPa | 0 mm | - | 0 W/m² | - |
| 1777109300 | 4.44° C | 41% | 1013.9 hPa | 0 mm | - | 0 W/m² | - |
| 1777108995 | 5° C | 40% | 1013.8 hPa | 0 mm | - | 0 W/m² | - |
| 1777108691 | 4.44° C | 40% | 1013.9 hPa | 0 mm | - | 0 W/m² | - |
| 1777108388 | 5° C | 41% | 1013.9 hPa | 0 mm | - | 0 W/m² | - |
| 1777108083 | 5° C | 41% | 1013.8 hPa | 0 mm | - | 0 W/m² | - |
| 1777107779 | 5° C | 42% | 1013.8 hPa | 0 mm | - | 0 W/m² | - |
| 1777107478 | 5° C | 41% | 1013.5 hPa | 0 mm | - | 0 W/m² | - |
| 1777107170 | 5° C | 39% | 1013.8 hPa | 0 mm | - | 0 W/m² | - |
| 1777106869 | 5° C | 39% | 1013.5 hPa | 0 mm | - | 0 W/m² | - |
| 1777106566 | 5° C | 38% | 1013.5 hPa | 0 mm | - | 0 W/m² | - |
| 1777106263 | 5.56° C | 38% | 1013.8 hPa | 0 mm | - | 0 W/m² | - |
| 1777105958 | 5.56° C | 37% | 1013.8 hPa | 0 mm | - | 0 W/m² | - |
| 1777105656 | 5.56° C | 34% | 1013.8 hPa | 0 mm | - | 0 W/m² | - |
| 1777105351 | 5.56° C | 35% | 1013.5 hPa | 0 mm | - | 0 W/m² | - |
| 1777105047 | 5.56° C | 34% | 1013.6 hPa | 0 mm | - | 0 W/m² | - |
| 1777104745 | 6.11° C | 32% | 1013.6 hPa | 0 mm | - | 0 W/m² | - |
| 1777104441 | 6.11° C | 31% | 1013.9 hPa | 0 mm | - | 0 W/m² | - |
| 1777104136 | 6.11° C | 31% | 1013.8 hPa | 0 mm | - | 0 W/m² | - |
| 1777103833 | 6.11° C | 31% | 1013.6 hPa | 0 mm | - | 0 W/m² | - |
| 1777103530 | 6.11° C | 33% | 1013.9 hPa | 0 mm | - | 0 W/m² | - |
| 1777103227 | 6.67° C | 30% | 1013.5 hPa | 0 mm | - | 0 W/m² | - |
* Rain latest hour (hover to see other rain measurements)
** Current wind speed in m/s (hover to see current wind gust speed)